Year,Month,Day,Hour,Minute,Value (Times are PST for temperature in C)
2014,09,21,00,00,11.60
2014,09,21,00,01,11.60
2014,09,21,00,02,11.60
2014,09,21,00,03,11.60
2014,09,21,00,04,11.60
2014,09,21,00,05,11.60
2014,09,21,00,06,11.60
2014,09,21,00,07,11.60
2014,09,21,00,08,11.60
2014,09,21,00,09,11.60
2014,09,21,00,10,11.50
2014,09,21,00,11,11.50
2014,09,21,00,12,11.40
2014,09,21,00,13,11.40
2014,09,21,00,14,11.40
2014,09,21,00,15,11.40
2014,09,21,00,16,11.40
2014,09,21,00,17,11.30
2014,09,21,00,18,11.30
2014,09,21,00,19,11.30
2014,09,21,00,20,11.30
2014,09,21,00,21,11.30
2014,09,21,00,22,11.30
2014,09,21,00,23,11.30
2014,09,21,00,24,11.30
2014,09,21,00,25,11.30
2014,09,21,00,26,11.30
2014,09,21,00,27,11.20
2014,09,21,00,28,11.20
2014,09,21,00,29,11.20
2014,09,21,00,30,11.20
2014,09,21,00,31,11.20
2014,09,21,00,32,11.20
2014,09,21,00,33,11.20
2014,09,21,00,34,11.10
2014,09,21,00,35,11.10
2014,09,21,00,36,11.10
2014,09,21,00,37,11.10
2014,09,21,00,38,11.10
2014,09,21,00,39,11.10
2014,09,21,00,40,11.10
2014,09,21,00,41,11.10
2014,09,21,00,42,11.10
2014,09,21,00,43,11.10
2014,09,21,00,44,11.10
2014,09,21,00,45,11.10
2014,09,21,00,46,11.10
2014,09,21,00,47,11.10
2014,09,21,00,48,11.00
2014,09,21,00,49,11.00
2014,09,21,00,50,11.10
2014,09,21,00,51,11.10
2014,09,21,00,52,11.00
2014,09,21,00,53,11.00
2014,09,21,00,54,11.00
2014,09,21,00,55,11.00
2014,09,21,00,56,11.00
2014,09,21,00,57,11.00
2014,09,21,00,58,11.00
2014,09,21,00,59,10.90
2014,09,21,01,00,10.90
2014,09,21,01,01,10.90
2014,09,21,01,02,10.90
2014,09,21,01,03,10.90
2014,09,21,01,04,10.90
2014,09,21,01,05,10.90
2014,09,21,01,06,10.90
2014,09,21,01,07,10.90
2014,09,21,01,08,10.80
2014,09,21,01,09,10.80
2014,09,21,01,10,10.80
2014,09,21,01,11,10.80
2014,09,21,01,12,10.80
2014,09,21,01,13,10.80
2014,09,21,01,14,10.80
2014,09,21,01,15,10.80
2014,09,21,01,16,10.80
2014,09,21,01,17,10.80
2014,09,21,01,18,10.80
2014,09,21,01,19,10.80
2014,09,21,01,20,10.80
2014,09,21,01,21,10.80
2014,09,21,01,22,10.70
2014,09,21,01,23,10.70
2014,09,21,01,24,10.70
2014,09,21,01,25,10.70
2014,09,21,01,26,10.70
2014,09,21,01,27,10.70
2014,09,21,01,28,10.70
2014,09,21,01,29,10.70
2014,09,21,01,30,10.70
2014,09,21,01,31,10.70
2014,09,21,01,32,10.60
2014,09,21,01,33,10.60
2014,09,21,01,34,10.60
2014,09,21,01,35,10.60
2014,09,21,01,36,10.60
2014,09,21,01,37,10.60
2014,09,21,01,38,10.60
2014,09,21,01,39,10.60
2014,09,21,01,40,10.60
2014,09,21,01,41,10.60
2014,09,21,01,42,10.50
2014,09,21,01,43,10.50
2014,09,21,01,44,10.50
2014,09,21,01,45,10.50
2014,09,21,01,46,10.50
2014,09,21,01,47,10.50
2014,09,21,01,48,10.50
2014,09,21,01,49,10.40
2014,09,21,01,50,10.40
2014,09,21,01,51,10.40
2014,09,21,01,52,10.40
2014,09,21,01,53,10.40
2014,09,21,01,54,10.40
2014,09,21,01,55,10.40
2014,09,21,01,56,10.40
2014,09,21,01,57,10.40
2014,09,21,01,58,10.40
2014,09,21,01,59,10.40
2014,09,21,02,00,10.30
2014,09,21,02,01,10.30
2014,09,21,02,02,10.30
2014,09,21,02,03,10.30
2014,09,21,02,04,10.30
2014,09,21,02,05,10.30
2014,09,21,02,06,10.30
2014,09,21,02,07,10.30
2014,09,21,02,08,10.30
2014,09,21,02,09,10.30
2014,09,21,02,10,10.30
2014,09,21,02,11,10.30
2014,09,21,02,12,10.30
2014,09,21,02,13,10.30
2014,09,21,02,14,10.30
2014,09,21,02,15,10.30
2014,09,21,02,16,10.30
2014,09,21,02,17,10.20
2014,09,21,02,18,10.20
2014,09,21,02,19,10.20
2014,09,21,02,20,10.20
2014,09,21,02,21,10.20
2014,09,21,02,22,10.20
2014,09,21,02,23,10.20
2014,09,21,02,24,10.20
2014,09,21,02,25,10.20
2014,09,21,02,26,10.20
2014,09,21,02,27,10.20
2014,09,21,02,28,10.20
2014,09,21,02,29,10.20
2014,09,21,02,30,10.20
2014,09,21,02,31,10.20
2014,09,21,02,32,10.20
2014,09,21,02,33,10.30
2014,09,21,02,34,10.20
2014,09,21,02,35,10.20
2014,09,21,02,36,10.20
2014,09,21,02,37,10.20
2014,09,21,02,38,10.20
2014,09,21,02,39,10.20
2014,09,21,02,40,10.20
2014,09,21,02,41,10.20
2014,09,21,02,42,10.10
2014,09,21,02,43,10.10
2014,09,21,02,44,10.10
2014,09,21,02,45,10.10
2014,09,21,02,46,10.10
2014,09,21,02,47,10.10
2014,09,21,02,48,10.10
2014,09,21,02,49,10.10
2014,09,21,02,50,10.10
2014,09,21,02,51,10.10
2014,09,21,02,52,10.10
2014,09,21,02,53,10.10
2014,09,21,02,54,10.10
2014,09,21,02,55,10.10
2014,09,21,02,56,10.00
2014,09,21,02,57,10.00
2014,09,21,02,58,10.00
2014,09,21,02,59,10.00
2014,09,21,03,00,9.90
2014,09,21,03,01,9.90
2014,09,21,03,02,9.90
2014,09,21,03,03,9.90
2014,09,21,03,04,9.90
2014,09,21,03,05,9.90
2014,09,21,03,06,9.90
2014,09,21,03,07,9.80
2014,09,21,03,08,9.80
2014,09,21,03,09,9.80
2014,09,21,03,10,9.80
2014,09,21,03,11,9.80
2014,09,21,03,12,9.80
2014,09,21,03,13,9.80
2014,09,21,03,14,9.80
2014,09,21,03,15,9.90
2014,09,21,03,16,9.90
2014,09,21,03,17,9.90
2014,09,21,03,18,9.90
2014,09,21,03,19,9.90
2014,09,21,03,20,9.90
2014,09,21,03,21,10.00
2014,09,21,03,22,9.90
2014,09,21,03,23,9.90
2014,09,21,03,24,9.90
2014,09,21,03,25,9.90
2014,09,21,03,26,9.80
2014,09,21,03,27,9.80
2014,09,21,03,28,9.80
2014,09,21,03,29,9.80
2014,09,21,03,30,9.80
2014,09,21,03,31,9.80
2014,09,21,03,32,9.80
2014,09,21,03,33,9.80
2014,09,21,03,34,9.80
2014,09,21,03,35,9.80
2014,09,21,03,36,9.80
2014,09,21,03,37,9.80
2014,09,21,03,38,9.80
2014,09,21,03,39,9.80
2014,09,21,03,40,9.80
2014,09,21,03,41,9.80
2014,09,21,03,42,9.70
2014,09,21,03,43,9.70
2014,09,21,03,44,9.70
2014,09,21,03,45,9.70
2014,09,21,03,46,9.70
2014,09,21,03,47,9.70
2014,09,21,03,48,9.70
2014,09,21,03,49,9.70
2014,09,21,03,50,9.70
2014,09,21,03,51,9.70
2014,09,21,03,52,9.70
2014,09,21,03,53,9.70
2014,09,21,03,54,9.70
2014,09,21,03,55,9.70
2014,09,21,03,56,9.60
2014,09,21,03,57,9.60
2014,09,21,03,58,9.60
2014,09,21,03,59,9.60
2014,09,21,04,00,9.60
2014,09,21,04,01,9.60
2014,09,21,04,02,9.60
2014,09,21,04,03,9.60
2014,09,21,04,04,9.60
2014,09,21,04,05,9.70
2014,09,21,04,06,9.70
2014,09,21,04,07,9.70
2014,09,21,04,08,9.60
2014,09,21,04,09,9.60
2014,09,21,04,10,9.60
2014,09,21,04,11,9.60
2014,09,21,04,12,9.60
2014,09,21,04,13,9.60
2014,09,21,04,14,9.60
2014,09,21,04,15,9.60
2014,09,21,04,16,9.60
2014,09,21,04,17,9.70
2014,09,21,04,18,9.70
2014,09,21,04,19,9.70
2014,09,21,04,20,9.60
2014,09,21,04,21,9.60
2014,09,21,04,22,9.60
2014,09,21,04,23,9.60
2014,09,21,04,24,9.60
2014,09,21,04,25,9.60
2014,09,21,04,26,9.60
2014,09,21,04,27,9.60
2014,09,21,04,28,9.60
2014,09,21,04,29,9.50
2014,09,21,04,30,9.50
2014,09,21,04,31,9.50
2014,09,21,04,32,9.50
2014,09,21,04,33,9.50
2014,09,21,04,34,9.50
2014,09,21,04,35,9.50
2014,09,21,04,36,9.50
2014,09,21,04,37,9.40
2014,09,21,04,38,9.40
2014,09,21,04,39,9.40
2014,09,21,04,40,9.40
2014,09,21,04,41,9.40
2014,09,21,04,42,9.40
2014,09,21,04,43,9.40
2014,09,21,04,44,9.40
2014,09,21,04,45,9.40
2014,09,21,04,46,9.50
2014,09,21,04,47,9.50
2014,09,21,04,48,9.40
2014,09,21,04,49,9.40
2014,09,21,04,50,9.40
2014,09,21,04,51,9.40
2014,09,21,04,52,9.40
2014,09,21,04,53,9.40
2014,09,21,04,54,9.30
2014,09,21,04,55,9.30
2014,09,21,04,56,9.30
2014,09,21,04,57,9.30
2014,09,21,04,58,9.30
2014,09,21,04,59,9.30
2014,09,21,05,00,9.30
2014,09,21,05,01,9.30
2014,09,21,05,02,9.30
2014,09,21,05,03,9.30
2014,09,21,05,04,9.30
2014,09,21,05,05,9.20
2014,09,21,05,06,9.20
2014,09,21,05,07,9.20
2014,09,21,05,08,9.20
2014,09,21,05,09,9.20
2014,09,21,05,10,9.20
2014,09,21,05,11,9.20
2014,09,21,05,12,9.20
2014,09,21,05,13,9.20
2014,09,21,05,14,9.20
2014,09,21,05,15,9.20
2014,09,21,05,16,9.20
2014,09,21,05,17,9.20
2014,09,21,05,18,9.20
2014,09,21,05,19,9.20
2014,09,21,05,20,9.20
2014,09,21,05,21,9.20
2014,09,21,05,22,9.20
2014,09,21,05,23,9.20
2014,09,21,05,24,9.20
2014,09,21,05,25,9.20
2014,09,21,05,26,9.20
2014,09,21,05,27,9.20
2014,09,21,05,28,9.20
2014,09,21,05,29,9.20
2014,09,21,05,30,9.20
2014,09,21,05,31,9.20
2014,09,21,05,32,9.20
2014,09,21,05,33,9.20
2014,09,21,05,34,9.20
2014,09,21,05,35,9.20
2014,09,21,05,36,9.20
2014,09,21,05,37,9.30
2014,09,21,05,38,9.30
2014,09,21,05,39,9.30
2014,09,21,05,40,9.30
2014,09,21,05,41,9.30
2014,09,21,05,42,9.30
2014,09,21,05,43,9.20
2014,09,21,05,44,9.20
2014,09,21,05,45,9.10
2014,09,21,05,46,9.10
2014,09,21,05,47,9.10
2014,09,21,05,48,9.10
2014,09,21,05,49,9.10
2014,09,21,05,50,9.10
2014,09,21,05,51,9.00
2014,09,21,05,52,9.00
2014,09,21,05,53,9.00
2014,09,21,05,54,9.00
2014,09,21,05,55,9.00
2014,09,21,05,56,9.00
2014,09,21,05,57,8.90
2014,09,21,05,58,8.90
2014,09,21,05,59,8.90
2014,09,21,06,00,8.90
2014,09,21,06,01,8.90
2014,09,21,06,02,8.90
2014,09,21,06,03,8.90
2014,09,21,06,04,8.90
2014,09,21,06,05,8.90
2014,09,21,06,06,8.90
2014,09,21,06,07,8.90
2014,09,21,06,08,8.90
2014,09,21,06,09,9.00
2014,09,21,06,10,9.00
2014,09,21,06,11,9.00
2014,09,21,06,12,8.90
2014,09,21,06,13,8.90
2014,09,21,06,14,8.90
2014,09,21,06,15,8.90
2014,09,21,06,16,8.90
2014,09,21,06,17,8.90
2014,09,21,06,18,8.90
2014,09,21,06,19,8.90
2014,09,21,06,20,8.90
2014,09,21,06,21,8.90
2014,09,21,06,22,8.80
2014,09,21,06,23,8.80
2014,09,21,06,24,8.80
2014,09,21,06,25,8.80
2014,09,21,06,26,8.80
2014,09,21,06,27,8.80
2014,09,21,06,28,8.80
2014,09,21,06,29,8.80
2014,09,21,06,30,8.80
2014,09,21,06,31,8.80
2014,09,21,06,32,8.80
2014,09,21,06,33,8.80
2014,09,21,06,34,8.80
2014,09,21,06,35,8.80
2014,09,21,06,36,8.80
2014,09,21,06,37,8.80
2014,09,21,06,38,8.80
2014,09,21,06,39,8.80
2014,09,21,06,40,8.80
2014,09,21,06,41,8.80
2014,09,21,06,42,8.80
2014,09,21,06,43,8.70
2014,09,21,06,44,8.70
2014,09,21,06,45,8.70
2014,09,21,06,46,8.70
2014,09,21,06,47,8.70
2014,09,21,06,48,8.70
2014,09,21,06,49,8.70
2014,09,21,06,50,8.70
2014,09,21,06,51,8.70
2014,09,21,06,52,8.70
2014,09,21,06,53,8.70
2014,09,21,06,54,8.70
2014,09,21,06,55,8.70
2014,09,21,06,56,8.70
2014,09,21,06,57,8.70
2014,09,21,06,58,8.70
2014,09,21,06,59,8.70
2014,09,21,07,00,8.70
2014,09,21,07,01,8.70
2014,09,21,07,02,8.70
2014,09,21,07,03,8.70
2014,09,21,07,04,8.70
2014,09,21,07,05,8.70
2014,09,21,07,06,8.70
2014,09,21,07,07,8.70
2014,09,21,07,08,8.70
2014,09,21,07,09,8.70
2014,09,21,07,10,8.70
2014,09,21,07,11,8.70
2014,09,21,07,12,8.70
2014,09,21,07,13,8.80
2014,09,21,07,14,8.80
2014,09,21,07,15,8.80
2014,09,21,07,16,8.80
2014,09,21,07,17,8.80
2014,09,21,07,18,8.80
2014,09,21,07,19,8.80
2014,09,21,07,20,8.70
2014,09,21,07,21,8.70
2014,09,21,07,22,8.70
2014,09,21,07,23,8.70
2014,09,21,07,24,8.70
2014,09,21,07,25,8.70
2014,09,21,07,26,8.70
2014,09,21,07,27,8.70
2014,09,21,07,28,8.70
2014,09,21,07,29,8.70
2014,09,21,07,30,8.70
2014,09,21,07,31,8.70
2014,09,21,07,32,8.70
2014,09,21,07,33,8.70
2014,09,21,07,34,8.70
2014,09,21,07,35,8.70
2014,09,21,07,36,8.70
2014,09,21,07,37,8.70
2014,09,21,07,38,8.70
2014,09,21,07,39,8.70
2014,09,21,07,40,8.70
2014,09,21,07,41,8.70
2014,09,21,07,42,8.70
2014,09,21,07,43,8.70
2014,09,21,07,44,8.70
2014,09,21,07,45,8.70
2014,09,21,07,46,8.70
2014,09,21,07,47,8.80
2014,09,21,07,48,8.80
2014,09,21,07,49,8.80
2014,09,21,07,50,8.80
2014,09,21,07,51,8.80
2014,09,21,07,52,8.80
2014,09,21,07,53,8.80
2014,09,21,07,54,8.80
2014,09,21,07,55,8.80
2014,09,21,07,56,8.80
2014,09,21,07,57,8.80
2014,09,21,07,58,8.80
2014,09,21,07,59,8.80
2014,09,21,08,00,8.80
2014,09,21,08,01,8.80
2014,09,21,08,02,8.90
2014,09,21,08,03,8.90
2014,09,21,08,04,8.90
2014,09,21,08,05,9.00
2014,09,21,08,06,9.00
2014,09,21,08,07,9.00
2014,09,21,08,08,9.00
2014,09,21,08,09,9.00
2014,09,21,08,10,9.00
2014,09,21,08,11,9.00
2014,09,21,08,12,9.10
2014,09,21,08,13,9.10
2014,09,21,08,14,9.20
2014,09,21,08,15,9.20
2014,09,21,08,16,9.30
2014,09,21,08,17,9.40
2014,09,21,08,18,9.50
2014,09,21,08,19,9.50
2014,09,21,08,20,9.60
2014,09,21,08,21,9.70
2014,09,21,08,22,9.80
2014,09,21,08,23,9.80
2014,09,21,08,24,9.80
2014,09,21,08,25,9.90
2014,09,21,08,26,9.90
2014,09,21,08,27,10.00
2014,09,21,08,28,10.00
2014,09,21,08,29,10.10
2014,09,21,08,30,10.10
2014,09,21,08,31,10.20
2014,09,21,08,32,10.30
2014,09,21,08,33,10.40
2014,09,21,08,34,10.50
2014,09,21,08,35,10.60
2014,09,21,08,36,10.70
2014,09,21,08,37,10.80
2014,09,21,08,38,10.80
2014,09,21,08,39,10.90
2014,09,21,08,40,11.00
2014,09,21,08,41,11.10
2014,09,21,08,42,11.10
2014,09,21,08,43,11.20
2014,09,21,08,44,11.20
2014,09,21,08,45,11.30
2014,09,21,08,46,11.30
2014,09,21,08,47,11.40
2014,09,21,08,48,11.50
2014,09,21,08,49,11.60
2014,09,21,08,50,11.80
2014,09,21,08,51,11.90
2014,09,21,08,52,12.00
2014,09,21,08,53,12.10
2014,09,21,08,54,12.20
2014,09,21,08,55,12.40
2014,09,21,08,56,12.50
2014,09,21,08,57,12.60
2014,09,21,08,58,12.70
2014,09,21,08,59,12.70
2014,09,21,09,00,12.80
2014,09,21,09,01,12.80
2014,09,21,09,02,12.80
2014,09,21,09,03,12.80
2014,09,21,09,04,12.80
2014,09,21,09,05,12.90
2014,09,21,09,06,12.90
2014,09,21,09,07,13.00
2014,09,21,09,08,13.10
2014,09,21,09,09,13.10
2014,09,21,09,10,13.20
2014,09,21,09,11,13.30
2014,09,21,09,12,13.30
2014,09,21,09,13,13.40
2014,09,21,09,14,13.50
2014,09,21,09,15,13.60
2014,09,21,09,16,13.70
2014,09,21,09,17,13.80
2014,09,21,09,18,13.90
2014,09,21,09,19,14.00
2014,09,21,09,20,14.20
2014,09,21,09,21,14.30
2014,09,21,09,22,14.30
2014,09,21,09,23,14.40
2014,09,21,09,24,14.50
2014,09,21,09,25,14.50
2014,09,21,09,26,14.60
2014,09,21,09,27,14.60
2014,09,21,09,28,14.60
2014,09,21,09,29,14.60
2014,09,21,09,30,14.60
2014,09,21,09,31,14.60
2014,09,21,09,32,14.60
2014,09,21,09,33,14.70
2014,09,21,09,34,14.70
2014,09,21,09,35,14.70
2014,09,21,09,36,14.70
2014,09,21,09,37,14.80
2014,09,21,09,38,14.80
2014,09,21,09,39,14.80
2014,09,21,09,40,14.90
2014,09,21,09,41,14.90
2014,09,21,09,42,15.00
2014,09,21,09,43,15.00
2014,09,21,09,44,15.10
2014,09,21,09,45,15.20
2014,09,21,09,46,15.20
2014,09,21,09,47,15.30
2014,09,21,09,48,15.40
2014,09,21,09,49,15.40
2014,09,21,09,50,15.50
2014,09,21,09,51,15.60
2014,09,21,09,52,15.70
2014,09,21,09,53,15.70
2014,09,21,09,54,15.80
2014,09,21,09,55,15.90
2014,09,21,09,56,16.00
2014,09,21,09,57,16.10
2014,09,21,09,58,16.10
2014,09,21,09,59,16.20
2014,09,21,10,00,16.30
2014,09,21,10,01,16.40
2014,09,21,10,02,16.40
2014,09,21,10,03,16.60
2014,09,21,10,04,16.70
2014,09,21,10,05,16.80
2014,09,21,10,06,16.90
2014,09,21,10,07,17.00
2014,09,21,10,08,17.20
2014,09,21,10,09,17.30
2014,09,21,10,10,17.40
2014,09,21,10,11,17.40
2014,09,21,10,12,17.50
2014,09,21,10,13,17.60
2014,09,21,10,14,17.60
2014,09,21,10,15,17.70
2014,09,21,10,16,17.70
2014,09,21,10,17,17.70
2014,09,21,10,18,17.70
2014,09,21,10,19,17.80
2014,09,21,10,20,17.80
2014,09,21,10,21,17.90
2014,09,21,10,22,17.90
2014,09,21,10,23,18.00
2014,09,21,10,24,18.00
2014,09,21,10,25,18.00
2014,09,21,10,26,18.10
2014,09,21,10,27,18.10
2014,09,21,10,28,18.10
2014,09,21,10,29,18.10
2014,09,21,10,30,18.20
2014,09,21,10,31,18.20
2014,09,21,10,32,18.20
2014,09,21,10,33,18.20
2014,09,21,10,34,18.20
2014,09,21,10,35,18.20
2014,09,21,10,36,18.30
2014,09,21,10,37,18.30
2014,09,21,10,38,18.40
2014,09,21,10,39,18.40
2014,09,21,10,40,18.50
2014,09,21,10,41,18.50
2014,09,21,10,42,18.60
2014,09,21,10,43,18.60
2014,09,21,10,44,18.60
2014,09,21,10,45,18.60
2014,09,21,10,46,18.60
2014,09,21,10,47,18.60
2014,09,21,10,48,18.50
2014,09,21,10,49,18.50
2014,09,21,10,50,18.50
2014,09,21,10,51,18.50
2014,09,21,10,52,18.50
2014,09,21,10,53,18.40
2014,09,21,10,54,18.40
2014,09,21,10,55,18.40
2014,09,21,10,56,18.40
2014,09,21,10,57,18.40
2014,09,21,10,58,18.40
2014,09,21,10,59,18.40
2014,09,21,11,00,18.40
2014,09,21,11,01,18.50
2014,09,21,11,02,18.60
2014,09,21,11,03,18.60
2014,09,21,11,04,18.60
2014,09,21,11,05,18.60
2014,09,21,11,06,18.70
2014,09,21,11,07,18.70
2014,09,21,11,08,18.80
2014,09,21,11,09,18.80
2014,09,21,11,10,18.90
2014,09,21,11,11,18.90
2014,09,21,11,12,19.00
2014,09,21,11,13,19.10
2014,09,21,11,14,19.10
2014,09,21,11,15,19.10
2014,09,21,11,16,19.20
2014,09,21,11,17,19.20
2014,09,21,11,18,19.30
2014,09,21,11,19,19.40
2014,09,21,11,20,19.60
2014,09,21,11,21,19.70
2014,09,21,11,22,19.80
2014,09,21,11,23,19.90
2014,09,21,11,24,20.00
2014,09,21,11,25,20.00
2014,09,21,11,26,20.10
2014,09,21,11,27,20.10
2014,09,21,11,28,20.10
2014,09,21,11,29,20.00
2014,09,21,11,30,20.00
2014,09,21,11,31,19.90
2014,09,21,11,32,19.90
2014,09,21,11,33,19.90
2014,09,21,11,34,19.80
2014,09,21,11,35,19.80
2014,09,21,11,36,19.80
2014,09,21,11,37,19.80
2014,09,21,11,38,19.80
2014,09,21,11,39,19.80
2014,09,21,11,40,19.90
2014,09,21,11,41,19.90
2014,09,21,11,42,20.00
2014,09,21,11,43,20.10
2014,09,21,11,44,20.10
2014,09,21,11,45,20.20
2014,09,21,11,46,20.40
2014,09,21,11,47,20.40
2014,09,21,11,48,20.40
2014,09,21,11,49,20.40
2014,09,21,11,50,20.50
2014,09,21,11,51,20.60
2014,09,21,11,52,20.70
2014,09,21,11,53,20.80
2014,09,21,11,54,20.80
2014,09,21,11,55,20.80
2014,09,21,11,56,20.80
2014,09,21,11,57,20.80
2014,09,21,11,58,20.80
2014,09,21,11,59,20.80
2014,09,21,12,00,20.80
2014,09,21,12,01,20.70
2014,09,21,12,02,20.60
2014,09,21,12,03,20.60
2014,09,21,12,04,20.50
2014,09,21,12,05,20.50
2014,09,21,12,06,20.50
2014,09,21,12,07,20.50
2014,09,21,12,08,20.50
2014,09,21,12,09,20.50
2014,09,21,12,10,20.50
2014,09,21,12,11,20.50
2014,09,21,12,12,20.40
2014,09,21,12,13,20.50
2014,09,21,12,14,20.50
2014,09,21,12,15,20.60
2014,09,21,12,16,20.70
2014,09,21,12,17,20.70
2014,09,21,12,18,20.80
2014,09,21,12,19,20.80
2014,09,21,12,20,20.90
2014,09,21,12,21,20.90
2014,09,21,12,22,20.90
2014,09,21,12,23,20.90
2014,09,21,12,24,20.90
2014,09,21,12,25,20.90
2014,09,21,12,26,20.80
2014,09,21,12,27,20.80
2014,09,21,12,28,20.70
2014,09,21,12,29,20.80
2014,09,21,12,30,20.80
2014,09,21,12,31,20.80
2014,09,21,12,32,20.70
2014,09,21,12,33,20.70
2014,09,21,12,34,20.60
2014,09,21,12,35,20.60
2014,09,21,12,36,20.50
2014,09,21,12,37,20.50
2014,09,21,12,38,20.40
2014,09,21,12,39,20.40
2014,09,21,12,40,20.40
2014,09,21,12,41,20.40
2014,09,21,12,42,20.40
2014,09,21,12,43,20.40
2014,09,21,12,44,20.40
2014,09,21,12,45,20.30
2014,09,21,12,46,20.30
2014,09,21,12,47,20.30
2014,09,21,12,48,20.30
2014,09,21,12,49,20.20
2014,09,21,12,50,20.20
2014,09,21,12,51,20.20
2014,09,21,12,52,20.20
2014,09,21,12,53,20.20
2014,09,21,12,54,20.20
2014,09,21,12,55,20.20
2014,09,21,12,56,20.20
2014,09,21,12,57,20.10
2014,09,21,12,58,20.00
2014,09,21,12,59,20.00
2014,09,21,13,00,20.00
2014,09,21,13,01,20.00
2014,09,21,13,02,20.00
2014,09,21,13,03,20.00
2014,09,21,13,04,20.10
2014,09,21,13,05,20.20
2014,09,21,13,06,20.30
2014,09,21,13,07,20.30
2014,09,21,13,08,20.40
2014,09,21,13,09,20.40
2014,09,21,13,10,20.40
2014,09,21,13,11,20.30
2014,09,21,13,12,20.20
2014,09,21,13,13,20.20
2014,09,21,13,14,20.20
2014,09,21,13,15,20.10
2014,09,21,13,16,20.10
2014,09,21,13,17,20.20
2014,09,21,13,18,20.20
2014,09,21,13,19,20.20
2014,09,21,13,20,20.20
2014,09,21,13,21,20.20
2014,09,21,13,22,20.20
2014,09,21,13,23,20.30
2014,09,21,13,24,20.30
2014,09,21,13,25,20.40
2014,09,21,13,26,20.40
2014,09,21,13,27,20.40
2014,09,21,13,28,20.40
2014,09,21,13,29,20.40
2014,09,21,13,30,20.40
2014,09,21,13,31,20.40
2014,09,21,13,32,20.50
2014,09,21,13,33,20.60
2014,09,21,13,34,20.70
2014,09,21,13,35,20.70
2014,09,21,13,36,20.70
2014,09,21,13,37,20.70
2014,09,21,13,38,20.70
2014,09,21,13,39,20.70
2014,09,21,13,40,20.70
2014,09,21,13,41,20.70
2014,09,21,13,42,20.70
2014,09,21,13,43,20.70
2014,09,21,13,44,20.70
2014,09,21,13,45,20.70
2014,09,21,13,46,20.80
2014,09,21,13,47,20.90
2014,09,21,13,48,21.00
2014,09,21,13,49,21.10
2014,09,21,13,50,21.20
2014,09,21,13,51,21.30
2014,09,21,13,52,21.30
2014,09,21,13,53,21.20
2014,09,21,13,54,21.10
2014,09,21,13,55,21.00
2014,09,21,13,56,20.90
2014,09,21,13,57,20.80
2014,09,21,13,58,20.80
2014,09,21,13,59,20.80
2014,09,21,14,00,20.80
2014,09,21,14,01,20.80
2014,09,21,14,02,20.80
2014,09,21,14,03,20.80
2014,09,21,14,04,20.80
2014,09,21,14,05,20.80
2014,09,21,14,06,20.80
2014,09,21,14,07,20.80
2014,09,21,14,08,20.80
2014,09,21,14,09,20.80
2014,09,21,14,10,20.80
2014,09,21,14,11,20.80
2014,09,21,14,12,20.80
2014,09,21,14,13,20.80
2014,09,21,14,14,20.70
2014,09,21,14,15,20.70
2014,09,21,14,16,20.60
2014,09,21,14,17,20.60
2014,09,21,14,18,20.60
2014,09,21,14,19,20.60
2014,09,21,14,20,20.60
2014,09,21,14,21,20.70
2014,09,21,14,22,20.70
2014,09,21,14,23,20.70
2014,09,21,14,24,20.70
2014,09,21,14,25,20.80
2014,09,21,14,26,20.80
2014,09,21,14,27,20.90
2014,09,21,14,28,20.90
2014,09,21,14,29,21.00
2014,09,21,14,30,21.00
2014,09,21,14,31,21.00
2014,09,21,14,32,20.90
2014,09,21,14,33,20.90
2014,09,21,14,34,20.80
2014,09,21,14,35,20.80
2014,09,21,14,36,20.80
2014,09,21,14,37,20.80
2014,09,21,14,38,20.80
2014,09,21,14,39,20.80
2014,09,21,14,40,20.80
2014,09,21,14,41,20.90
2014,09,21,14,42,20.80
2014,09,21,14,43,20.80
2014,09,21,14,44,20.70
2014,09,21,14,45,20.70
2014,09,21,14,46,20.70
2014,09,21,14,47,20.70
2014,09,21,14,48,20.80
2014,09,21,14,49,20.80
2014,09,21,14,50,20.90
2014,09,21,14,51,20.90
2014,09,21,14,52,20.90
2014,09,21,14,53,20.80
2014,09,21,14,54,20.70
2014,09,21,14,55,20.60
2014,09,21,14,56,20.60
2014,09,21,14,57,20.50
2014,09,21,14,58,20.50
2014,09,21,14,59,20.60
2014,09,21,15,00,20.60
2014,09,21,15,01,20.60
2014,09,21,15,02,20.70
2014,09,21,15,03,20.70
2014,09,21,15,04,20.70
2014,09,21,15,05,20.70
2014,09,21,15,06,20.70
2014,09,21,15,07,20.70
2014,09,21,15,08,20.60
2014,09,21,15,09,20.70
2014,09,21,15,10,20.70
2014,09,21,15,11,20.70
2014,09,21,15,12,20.80
2014,09,21,15,13,20.90
2014,09,21,15,14,20.90
2014,09,21,15,15,21.00
2014,09,21,15,16,21.00
2014,09,21,15,17,21.00
2014,09,21,15,18,21.00
2014,09,21,15,19,21.10
2014,09,21,15,20,21.00
2014,09,21,15,21,21.00
2014,09,21,15,22,20.90
2014,09,21,15,23,20.90
2014,09,21,15,24,20.80
2014,09,21,15,25,20.80
2014,09,21,15,26,20.80
2014,09,21,15,27,20.80
2014,09,21,15,28,20.80
2014,09,21,15,29,20.90
2014,09,21,15,30,21.00
2014,09,21,15,31,21.00
2014,09,21,15,32,21.10
2014,09,21,15,33,21.20
2014,09,21,15,34,21.20
2014,09,21,15,35,21.20
2014,09,21,15,36,21.10
2014,09,21,15,37,21.10
2014,09,21,15,38,21.10
2014,09,21,15,39,21.10
2014,09,21,15,40,21.10
2014,09,21,15,41,21.10
2014,09,21,15,42,21.10
2014,09,21,15,43,21.10
2014,09,21,15,44,21.00
2014,09,21,15,45,21.00
2014,09,21,15,46,21.00
2014,09,21,15,47,21.00
2014,09,21,15,48,21.00
2014,09,21,15,49,21.00
2014,09,21,15,50,21.00
2014,09,21,15,51,21.00
2014,09,21,15,52,21.10
2014,09,21,15,53,21.10
2014,09,21,15,54,21.10
2014,09,21,15,55,21.20
2014,09,21,15,56,21.20
2014,09,21,15,57,21.20
2014,09,21,15,58,21.20
2014,09,21,15,59,21.30
2014,09,21,16,00,21.30
2014,09,21,16,01,21.30
2014,09,21,16,02,21.30
2014,09,21,16,03,21.30
2014,09,21,16,04,21.20
2014,09,21,16,05,21.20
2014,09,21,16,06,21.20
2014,09,21,16,07,21.20
2014,09,21,16,08,21.20
2014,09,21,16,09,21.20
2014,09,21,16,10,21.10
2014,09,21,16,11,21.10
2014,09,21,16,12,21.10
2014,09,21,16,13,21.10
2014,09,21,16,14,21.10
2014,09,21,16,15,21.00
2014,09,21,16,16,21.00
2014,09,21,16,17,21.00
2014,09,21,16,18,21.00
2014,09,21,16,19,21.00
2014,09,21,16,20,21.00
2014,09,21,16,21,21.00
2014,09,21,16,22,21.00
2014,09,21,16,23,21.00
2014,09,21,16,24,21.10
2014,09,21,16,25,21.10
2014,09,21,16,26,21.10
2014,09,21,16,27,21.10
2014,09,21,16,28,21.10
2014,09,21,16,29,21.20
2014,09,21,16,30,21.20
2014,09,21,16,31,21.20
2014,09,21,16,32,21.20
2014,09,21,16,33,21.20
2014,09,21,16,34,21.30
2014,09,21,16,35,21.30
2014,09,21,16,36,21.30
2014,09,21,16,37,21.30
2014,09,21,16,38,21.30
2014,09,21,16,39,21.40
2014,09,21,16,40,21.40
2014,09,21,16,41,21.40
2014,09,21,16,42,21.50
2014,09,21,16,43,21.50
2014,09,21,16,44,21.60
2014,09,21,16,45,21.60
2014,09,21,16,46,21.60
2014,09,21,16,47,21.70
2014,09,21,16,48,21.70
2014,09,21,16,49,21.70
2014,09,21,16,50,21.70
2014,09,21,16,51,21.70
2014,09,21,16,52,21.80
2014,09,21,16,53,21.80
2014,09,21,16,54,21.80
2014,09,21,16,55,21.80
2014,09,21,16,56,21.80
2014,09,21,16,57,21.80
2014,09,21,16,58,21.80
2014,09,21,16,59,21.80
2014,09,21,17,00,21.80
2014,09,21,17,01,21.70
2014,09,21,17,02,21.70
2014,09,21,17,03,21.70
2014,09,21,17,04,21.60
2014,09,21,17,05,21.60
2014,09,21,17,06,21.60
2014,09,21,17,07,21.60
2014,09,21,17,08,21.50
2014,09,21,17,09,21.50
2014,09,21,17,10,21.40
2014,09,21,17,11,21.40
2014,09,21,17,12,21.30
2014,09,21,17,13,21.30
2014,09,21,17,14,21.30
2014,09,21,17,15,21.20
2014,09,21,17,16,21.20
2014,09,21,17,17,21.20
2014,09,21,17,18,21.10
2014,09,21,17,19,21.10
2014,09,21,17,20,21.10
2014,09,21,17,21,21.00
2014,09,21,17,22,21.00
2014,09,21,17,23,21.00
2014,09,21,17,24,20.90
2014,09,21,17,25,20.90
2014,09,21,17,26,20.90
2014,09,21,17,27,20.90
2014,09,21,17,28,20.90
2014,09,21,17,29,20.90
2014,09,21,17,30,20.90
2014,09,21,17,31,20.90
2014,09,21,17,32,20.80
2014,09,21,17,33,20.80